Find Kosmos-203

NORAD ID: 3129 Int'l Des: 1968-011 Owner: OKB10 Country: SU operational
LEOCIRCULAR

現在のビュー

3D地球を読み込み中...

Kosmos-203について

説明を読み込み中...

次回通過

Passes for default location (London). Set your location on the main map for personalized predictions.

高度履歴

Loading altitude history...

軌道要素

1 3129U 68011A 26151.21433980 .00000041 00000-0 15389-3 0 9990
2 3129 74.0502 119.2112 0012793 316.1154 142.4262 13.18304133803745
Epoch: May 31, 2026 • Age: 9 hours

現在のステータス

高度 1206.8 km
速度 7.25 km/s
衛星直下点 42.79°N, 177.74°E
タイプ other

Most Searched